Wind_Speed
26 15 22 28 25 25 23 17 16 12 7 10 23 28 19 14 12 13 22 27 33 37 40 43 42 46 48 48 49 47 47 46 42 40 40 39 39 37 35 32 30 29 27 26
12 25 32 27 20 22 25 24 23 10 10 9 15 22 9 10 14 25 25 30 34 33 35 40 40 37 46 49 51 49 48 48 45 45 43 42 40 37 36 33 32 30 29 28
20 28 16 28 28 26 25 25 24 21 4 14 3 23 17 7 11 19 22 32 37 40 35 30 27 35 39 47 50 51 50 48 47 46 45 44 39 37 37 36 34 33 31 29
15 26 26 25 21 30 28 28 24 22 14 19 10 20 18 18 13 12 24 26 35 37 38 43 42 37 37 48 50 52 51 50 49 49 49 47 45 44 43 40 36 34 32 30
11 13 17 20 30 23 26 23 23 22 17 16 10 9 14 9 9 16 21 28 30 42 41 41 44 44 38 42 52 53 53 52 50 49 50 48 46 43 40 39 36 34 32 30
25 20 9 12 5 15 21 8 16 13 13 20 21 17 22 7 13 12 16 32 28 35 42 45 40 40 40 40 49 53 54 54 53 50 51 49 47 44 41 39 37 36 34 32
5 18 23 14 11 10 6 12 9 10 12 16 17 15 22 9 23 28 24 19 32 35 38 40 43 45 45 44 46 53 55 55 53 51 51 49 46 42 39 37 37 36 35 34
4 8 6 11 21 9 9 12 8 10 4 12 6 9 11 23 26 13 20 32 36 31 31 34 38 40 43 48 48 50 53 54 54 51 49 46 43 40 37 35 34 33 34 32
5 6 8 10 5 20 8 11 1 1 1 4 3 4 7 5 10 15 18 23 33 28 29 36 37 36 42 42 46 49 50 55 54 51 47 45 42 39 37 34 32 31 29 28
3 8 5 2 5 6 4 7 6 9 5 9 3 3 5 3 13 14 12 9 17 26 28 30 34 35 37 37 37 38 46 53 53 49 44 42 41 39 35 32 31 30 29 29
3 4 6 5 5 8 9 4 3 2 2 2 1 4 7 9 8 9 9 10 15 20 19 19 21 24 27 30 31 34 40 46 47 43 39 39 38 35 32 31 30 29 28 27
5 3 5 8 2 4 3 5 6 3 4 2 4 6 2 1 3 2 7 17 15 10 9 8 11 14 18 22 24 28 35 39 38 36 35 34 32 31 30 30 29 28 26 26
3 3 5 7 0 1 3 2 3 4 3 7 5 5 4 4 6 4 6 12 7 5 6 6 8 11 15 19 22 27 29 29 30 31 30 29 28 28 29 28 27 26 26 26
4 3 4 5 8 4 3 2 2 12 3 3 6 7 7 9 6 7 7 8 5 5 7 7 8 11 15 20 22 24 25 27 28 28 28 27 26 26 26 26 26 25 25 26
3 3 3 12 9 3 5 7 7 3 2 3 4 2 4 10 8 6 11 8 5 7 7 7 13 16 18 22 22 22 23 25 26 26 25 25 24 24 24 24 24 23 23 23
4 4 5 6 6 7 4 11 8 8 5 4 5 2 9 10 16 8 12 12 7 8 9 11 14 17 19 18 20 21 22 23 23 22 22 21 21 21 20 20 21 22 22 23
3 3 4 4 2 3 5 9 6 3 6 3 7 6 12 10 11 11 17 15 12 12 12 14 18 19 19 19 18 18 19 20 20 20 20 20 18 17 17 18 19 20 21 22
3 2 2 4 3 4 3 2 1 3 6 6 4 9 11 10 12 12 21 20 17 13 12 17 16 16 17 19 19 18 18 16 15 15 15 14 14 16 17 17 18 18 19 21
11 3 3 2 1 2 2 4 3 3 4 7 8 12 10 22 3 1 29 22 19 14 7 11 16 18 19 18 18 20 21 19 18 16 14 13 14 14 15 15 17 18 19 18
7 8 3 3 3 1 3 6 3 1 1 7 7 11 9 15 4 3 30 22 17 10 4 7 13 15 17 19 19 17 16 12 10 11 12 12 12 13 14 15 16 17 17 17
2 2 1 3 2 2 5 9 1 3 5 14 12 12 9 4 5 20 18 15 13 9 3 7 12 15 16 16 14 13 12 12 13 13 11 10 10 10 12 12 13 13 12 12
4 3 2 3 3 3 18 4 4 5 9 16 17 18 19 18 18 15 13 12 11 9 6 7 12 14 14 12 12 12 11 10 9 7 7 9 9 11 10 9 9 10 9 10
4 3 2 4 3 4 8 9 9 10 9 12 17 19 17 16 17 16 14 12 10 8 5 4 5 8 10 10 9 9 9 8 7 8 9 10 10 10 8 8 8 7 7 7
6 6 2 2 3 2 6 3 15 14 14 14 13 13 14 16 15 14 12 10 9 6 4 2 3 4 5 6 6 7 7 7 7 8 10 10 9 9 9 9 8 7 5 4
2 5 5 2 3 5 6 14 15 17 13 14 12 13 13 14 13 12 11 9 8 6 4 1 1 2 3 4 4 6 7 7 8 10 9 8 8 8 8 7 5 5 4 4
3 2 2 2 3 3 5 15 16 15 14 13 14 14 13 13 12 11 10 8 6 5 6 4 2 2 3 3 4 5 6 6 6 6 6 5 4 4 4 4 5 5 5 4
Wind_Direction
256 244 227 217 218 228 239 239 239 233 238 196 224 247 236 227 232 232 236 238 246 249 252 252 246 238 235 234 231 230 228 228 224 224 222 222 223 222 224 224 225 227 230 232
253 252 231 231 225 223 228 238 246 259 229 240 251 257 240 222 234 244 242 246 247 252 257 255 249 241 235 233 230 227 228 229 227 226 226 225 225 224 226 226 226 226 228 230
241 250 242 235 233 234 236 238 240 240 216 237 234 265 251 241 234 247 243 245 251 250 244 250 243 239 238 231 227 229 228 228 227 227 224 225 225 227 225 224 226 227 227 228
243 260 243 254 256 222 234 225 232 239 235 242 171 261 246 236 235 236 247 244 245 249 249 249 254 253 242 231 229 229 231 229 226 225 223 225 226 223 225 227 228 227 228 229
251 232 232 241 237 224 229 218 217 224 234 243 218 252 246 217 232 228 241 250 244 250 253 250 247 249 243 234 229 229 229 228 227 226 225 225 226 229 231 229 228 229 229 230
247 244 216 203 293 224 229 197 216 217 217 235 231 221 255 206 223 237 240 249 245 249 254 252 248 248 247 237 230 230 228 226 225 225 224 224 226 227 225 227 226 227 228 230
271 233 240 248 248 253 254 196 215 219 216 236 220 221 238 220 233 236 238 243 248 245 251 251 252 249 245 242 233 228 225 222 222 221 224 224 227 228 228 228 228 227 227 229
292 317 166 187 203 213 207 237 206 210 192 226 161 209 229 223 246 246 245 245 252 251 247 251 255 256 254 248 242 232 226 222 222 222 224 225 226 227 228 230 230 231 233 234
304 286 305 208 186 194 192 224 325 319 4 63 201 280 309 175 232 235 247 243 254 257 258 258 261 258 253 251 245 238 230 224 220 220 221 221 223 224 225 228 229 228 228 229
275 288 310 265 115 204 180 166 196 220 215 217 243 263 217 223 216 229 247 237 268 277 277 271 265 258 253 247 243 235 231 225 216 217 219 218 217 220 222 225 220 217 219 222
254 238 293 282 192 180 187 218 171 119 169 86 46 267 214 237 217 237 263 295 304 297 283 275 266 250 239 238 234 227 223 216 211 213 213 211 211 215 216 216 217 218 221 228
222 269 270 255 201 250 183 234 184 135 220 221 156 266 245 184 271 289 309 308 311 295 279 265 252 240 230 224 219 215 210 204 206 205 203 203 207 210 213 215 215 218 224 231
314 284 307 337 44 27 147 197 161 141 106 197 147 262 19 9 4 337 296 319 309 276 244 217 219 213 213 210 204 195 193 193 190 192 196 200 204 209 211 215 219 223 227 231
308 310 311 298 309 296 273 53 245 214 192 178 214 268 351 355 341 321 333 342 300 272 227 189 191 194 185 179 177 177 177 182 188 191 195 200 204 209 214 218 221 225 227 231
51 274 284 297 290 292 42 22 342 322 72 225 241 140 37 335 316 311 324 338 292 258 232 176 177 176 169 170 173 177 181 183 188 191 195 197 204 213 218 221 224 229 233 236
337 275 357 300 349 13 65 13 18 41 355 22 338 355 11 314 348 350 347 328 311 275 236 195 188 182 183 186 179 182 186 187 191 195 200 203 207 215 221 228 231 234 238 239
295 325 348 274 32 52 24 349 13 82 31 341 24 315 327 336 344 4 359 350 308 286 264 221 204 196 190 187 189 188 192 193 194 196 199 201 205 213 221 227 231 233 236 238
231 347 257 264 14 49 220 290 298 87 62 34 345 337 326 306 299 28 16 0 346 323 278 236 223 214 202 196 193 192 190 188 189 192 197 199 207 219 224 228 232 234 236 239
204 214 268 340 60 156 55 353 349 15 60 16 356 348 337 324 293 127 3 357 348 335 281 241 226 218 208 203 196 190 189 184 189 198 206 211 214 219 226 234 239 240 240 242
185 213 288 344 70 67 260 325 240 197 353 7 356 352 339 344 40 306 342 350 357 355 312 232 207 203 192 186 187 187 191 190 197 206 210 212 217 221 226 229 235 238 241 242
352 9 158 254 115 349 355 312 360 55 288 337 336 340 342 5 317 314 339 358 7 15 52 172 180 181 182 184 186 189 187 191 200 209 209 209 216 222 226 228 232 237 241 245
22 337 12 17 60 6 342 14 58 326 318 334 340 348 342 340 343 346 357 10 20 33 69 142 163 171 176 184 189 192 199 204 198 196 210 218 218 224 224 226 232 235 240 246
38 356 357 21 76 98 48 72 30 5 339 340 335 340 347 343 347 352 357 7 17 33 59 117 166 172 174 180 189 195 188 187 189 207 213 217 216 220 216 221 225 228 233 241
0 15 41 167 72 144 68 21 11 2 351 349 350 348 352 350 350 350 353 356 2 18 31 70 162 182 188 187 189 185 191 199 202 205 210 207 200 201 202 208 212 211 213 219
336 332 335 36 52 102 107 20 355 350 349 355 8 6 1 357 1 354 351 351 350 351 358 10 165 164 171 173 180 211 209 200 200 202 202 198 193 191 189 194 187 196 195 193
348 12 9 317 69 315 303 340 346 354 356 360 0 10 15 9 5 1 360 356 349 347 343 334 312 280 266 229 205 201 199 200 197 185 176 179 184 185 191 187 193 193 194 202
Height
1416 1415 1398 1396 1397 1397 1400 1403 1405 1402 1401 1402 1397 1386 1394 1397 1397 1396 1396 1397 1399 1400 1403 1405 1408 1413 1417 1421 1424 1428 1433 1436 1442 1447 1451 1455 1456 1460 1465 1468 1471 1474 1479 1482
1413 1402 1389 1388 1393 1394 1394 1397 1397 1398 1401 1401 1395 1384 1392 1392 1390 1390 1390 1389 1390 1393 1395 1395 1399 1402 1407 1411 1416 1420 1425 1429 1434 1438 1443 1448 1452 1457 1460 1464 1467 1470 1473 1475
1407 1381 1386 1389 1386 1390 1389 1394 1394 1394 1397 1394 1396 1384 1388 1387 1386 1384 1383 1382 1384 1383 1387 1388 1390 1393 1398 1401 1407 1412 1415 1421 1427 1433 1437 1442 1449 1453 1455 1456 1460 1463 1467 1470
1393 1380 1387 1388 1385 1379 1380 1380 1387 1392 1398 1394 1394 1382 1377 1377 1380 1381 1374 1375 1375 1377 1379 1382 1382 1385 1387 1390 1397 1402 1407 1411 1417 1421 1427 1431 1435 1439 1444 1449 1454 1459 1462 1465
1378 1371 1371 1376 1369 1369 1366 1371 1380 1385 1392 1394 1388 1388 1367 1373 1374 1370 1366 1366 1367 1369 1369 1371 1373 1374 1378 1383 1386 1392 1398 1404 1409 1413 1418 1423 1428 1433 1440 1445 1450 1453 1457 1460
1366 1363 1361 1358 1362 1362 1364 1372 1376 1382 1383 1375 1377 1383 1351 1370 1364 1361 1360 1357 1358 1361 1362 1363 1366 1370 1371 1375 1380 1384 1388 1395 1400 1407 1410 1414 1420 1426 1432 1438 1443 1448 1452 1454
1356 1352 1347 1355 1366 1369 1368 1362 1365 1365 1361 1353 1355 1370 1355 1349 1348 1346 1349 1352 1352 1352 1354 1356 1358 1361 1364 1365 1369 1375 1380 1386 1393 1399 1405 1410 1415 1422 1427 1432 1436 1441 1446 1448
1354 1353 1347 1344 1351 1359 1356 1357 1346 1347 1352 1355 1356 1360 1346 1341 1343 1343 1344 1343 1344 1345 1346 1348 1350 1352 1355 1359 1361 1366 1372 1378 1385 1391 1398 1405 1412 1418 1422 1426 1431 1436 1440 1445
1361 1351 1332 1337 1335 1343 1351 1354 1348 1357 1403 1387 1369 1350 1339 1338 1339 1338 1336 1337 1334 1336 1340 1341 1344 1344 1345 1348 1352 1357 1362 1368 1376 1384 1390 1397 1405 1411 1416 1421 1426 1429 1435 1441
1366 1358 1333 1330 1333 1337 1339 1337 1349 1351 1338 1341 1359 1364 1348 1345 1337 1332 1331 1331 1331 1331 1332 1332 1333 1335 1338 1340 1343 1350 1354 1359 1368 1376 1384 1392 1398 1405 1410 1416 1420 1424 1429 1434
1366 1362 1340 1332 1334 1337 1337 1337 1345 1343 1344 1348 1349 1349 1340 1330 1331 1334 1332 1329 1331 1329 1327 1326 1326 1328 1331 1335 1337 1341 1347 1354 1363 1371 1378 1387 1393 1400 1406 1410 1415 1420 1424 1429
1362 1356 1354 1333 1331 1332 1330 1333 1334 1350 1365 1364 1364 1353 1336 1340 1337 1336 1335 1332 1330 1328 1326 1324 1326 1327 1330 1333 1335 1339 1346 1352 1361 1368 1375 1383 1389 1396 1403 1407 1411 1415 1418 1423
1363 1356 1348 1329 1330 1328 1331 1337 1335 1345 1351 1354 1357 1349 1338 1340 1334 1333 1335 1332 1329 1328 1326 1325 1327 1328 1331 1334 1337 1340 1346 1354 1360 1367 1374 1382 1387 1393 1398 1404 1407 1409 1413 1417
1361 1357 1348 1346 1340 1337 1331 1330 1332 1332 1344 1357 1345 1334 1343 1342 1345 1338 1335 1332 1331 1331 1330 1326 1328 1332 1333 1336 1340 1344 1348 1355 1362 1366 1371 1378 1384 1390 1396 1400 1402 1405 1408 1411
1367 1371 1353 1344 1348 1342 1340 1347 1346 1334 1331 1329 1351 1346 1351 1351 1346 1341 1336 1332 1333 1334 1334 1329 1331 1335 1338 1340 1342 1347 1351 1355 1361 1366 1371 1375 1381 1387 1392 1396 1398 1401 1403 1406
1370 1366 1358 1350 1346 1343 1347 1352 1347 1349 1355 1359 1357 1337 1352 1350 1342 1337 1334 1334 1334 1336 1336 1334 1335 1337 1339 1345 1346 1348 1353 1357 1361 1365 1370 1373 1377 1383 1388 1392 1394 1397 1399 1401
1368 1364 1365 1361 1355 1349 1356 1362 1359 1359 1361 1360 1358 1358 1351 1346 1346 1344 1339 1339 1337 1336 1336 1336 1337 1339 1341 1344 1348 1351 1355 1357 1361 1364 1367 1371 1375 1380 1383 1387 1390 1392 1395 1397
1367 1372 1372 1365 1357 1364 1367 1367 1366 1363 1365 1366 1364 1361 1356 1352 1349 1349 1345 1342 1338 1336 1335 1336 1338 1340 1343 1346 1348 1350 1355 1358 1361 1364 1368 1370 1372 1376 1380 1383 1386 1388 1390 1393
1362 1365 1360 1356 1379 1365 1366 1368 1367 1367 1365 1367 1366 1361 1357 1348 1345 1347 1346 1343 1339 1335 1335 1336 1339 1343 1345 1346 1349 1351 1353 1356 1359 1363 1366 1368 1371 1373 1377 1379 1382 1383 1386 1387
1357 1361 1359 1370 1364 1375 1373 1367 1366 1368 1367 1369 1367 1363 1361 1352 1350 1351 1347 1343 1339 1336 1335 1336 1339 1342 1344 1348 1351 1353 1355 1355 1357 1362 1366 1366 1369 1372 1374 1375 1378 1380 1382 1382
1360 1361 1363 1363 1367 1377 1374 1369 1366 1371 1383 1369 1368 1365 1362 1361 1362 1357 1351 1346 1343 1340 1338 1339 1340 1343 1346 1349 1351 1352 1354 1356 1360 1363 1362 1364 1368 1369 1373 1372 1375 1377 1378 1378
1368 1368 1367 1364 1370 1376 1373 1366 1370 1381 1375 1372 1368 1365 1362 1360 1358 1356 1352 1349 1346 1344 1342 1343 1344 1345 1347 1350 1352 1354 1356 1358 1359 1359 1361 1364 1366 1369 1369 1370 1371 1372 1373 1375
1375 1377 1373 1374 1378 1383 1384 1383 1383 1381 1379 1375 1371 1367 1364 1362 1358 1355 1352 1350 1348 1346 1346 1347 1348 1348 1349 1350 1352 1354 1355 1357 1358 1360 1362 1366 1367 1368 1366 1368 1370 1371 1371 1373
1379 1379 1376 1377 1384 1384 1385 1384 1383 1382 1379 1376 1372 1368 1364 1361 1359 1356 1354 1353 1352 1350 1350 1350 1350 1350 1350 1351 1352 1353 1355 1356 1358 1361 1364 1365 1364 1365 1367 1369 1369 1370 1370 1370
1388 1384 1385 1380 1383 1384 1385 1384 1383 1380 1377 1374 1372 1368 1365 1363 1361 1359 1357 1355 1353 1352 1352 1352 1352 1352 1352 1352 1353 1355 1357 1358 1360 1363 1365 1364 1364 1365 1366 1368 1365 1368 1369 1370
1391 1391 1390 1387 1390 1390 1386 1384 1382 1379 1376 1374 1371 1368 1366 1364 1362 1360 1358 1357 1356 1354 1354 1353 1353 1353 1353 1354 1354 1356 1357 1359 1359 1359 1359 1360 1361 1362 1362 1363 1367 1368 1369 1370